Theta_e
346 343 341 338 339 341 341 342 343 345 345 345 344 342 340 340 341 340 338 339 337 338 340 339 342 341 342 340 340 340 343 350 347 344 342 343 342 342 342 339 338 338 341
349 342 341 339 337 339 340 341 341 343 344 344 344 344 342 341 340 340 337 340 339 338 340 341 342 342 342 341 340 340 342 349 348 345 344 343 344 343 344 343 341 341 340
351 348 341 339 337 341 342 341 341 344 345 347 344 342 341 341 340 341 341 339 338 338 340 340 340 340 341 341 341 342 342 348 348 345 344 342 341 343 344 343 342 341 340
350 348 343 340 339 340 340 337 336 339 344 343 344 340 337 340 341 340 341 340 338 338 339 341 340 340 340 340 341 342 343 346 347 344 344 343 343 343 342 342 342 341 340
350 348 346 343 344 338 337 335 336 344 342 341 338 341 339 339 343 340 340 340 342 339 337 340 339 342 342 341 340 341 342 346 346 344 343 343 343 343 342 342 342 340 339
350 347 347 346 343 338 335 335 346 343 339 337 338 339 341 341 342 343 341 343 341 340 339 339 339 336 342 342 340 340 342 344 345 344 343 342 342 342 341 341 341 340 339
350 347 346 345 344 339 339 346 343 340 339 340 335 333 335 337 337 337 341 343 341 340 339 338 338 336 339 341 341 339 341 343 344 344 341 341 341 342 341 340 340 337 337
351 349 347 345 343 339 344 345 343 338 339 337 331 328 321 332 334 335 337 337 339 342 338 337 338 339 343 338 339 341 339 342 344 343 342 341 342 342 341 341 338 337 333
350 349 348 346 346 344 343 345 342 340 334 332 336 327 323 323 328 332 334 333 337 340 340 340 338 339 342 344 340 340 342 341 343 344 343 342 341 340 340 340 337 334 334
349 349 349 347 348 344 345 342 341 342 339 331 332 332 332 330 324 321 330 332 334 336 337 342 338 338 341 339 339 340 340 341 342 344 343 343 341 341 340 339 335 335 331
349 349 349 348 348 344 345 343 343 341 337 335 330 330 329 328 332 326 324 325 330 333 337 334 340 340 340 341 340 338 338 339 340 341 341 341 341 341 340 337 334 332 331
348 348 347 348 347 346 344 343 343 340 338 336 333 333 327 325 325 326 324 328 328 334 336 340 341 343 341 340 340 335 333 334 333 334 336 338 339 340 339 336 333 332 332
341 346 346 346 344 345 345 343 342 340 337 335 335 331 330 332 333 331 331 329 328 331 333 339 341 342 341 342 342 338 334 330 328 328 330 333 335 337 336 335 333 332 333
341 348 346 346 344 344 342 342 340 337 338 335 335 334 335 336 334 333 333 330 326 327 328 330 334 340 344 345 341 333 336 327 326 324 325 328 330 331 331 330 331 331 332
343 346 346 344 343 343 341 341 336 337 336 337 337 336 332 327 330 336 329 330 331 322 322 327 330 336 340 339 338 339 341 325 325 322 322 324 324 325 325 326 327 328 328
343 343 343 343 341 340 340 339 337 336 336 339 334 331 328 327 326 331 331 330 327 330 324 326 332 334 336 336 338 342 340 328 322 322 322 321 320 321 322 323 323 323 324
342 340 339 339 338 338 339 338 336 335 334 335 335 332 332 331 327 325 324 328 331 334 328 330 332 333 336 337 340 341 338 337 331 322 322 320 318 318 319 319 320 321 322
340 339 338 336 336 336 336 335 334 334 331 333 332 331 330 326 329 326 329 334 335 337 332 326 329 328 330 331 337 335 334 333 334 322 319 317 317 316 316 316 317 317 316
339 337 336 334 334 334 334 335 334 333 334 333 332 331 331 331 330 327 333 334 336 334 335 330 326 324 325 325 325 328 328 331 331 321 318 317 316 315 315 315 314 314 312
337 336 336 334 333 333 333 334 333 334 334 334 332 333 332 332 330 332 334 334 333 330 331 328 325 321 321 324 323 320 318 321 320 322 320 318 317 316 314 313 314 313 310
336 335 334 333 333 332 331 334 335 335 334 333 334 331 334 327 322 327 335 335 333 328 323 320 321 319 318 318 317 319 316 316 318 319 318 319 319 319 317 315 318 315 309
335 335 333 333 333 330 308 316 328 335 333 332 333 328 331 322 321 316 316 317 330 329 323 319 318 316 318 318 318 316 315 313 309 318 316 314 319 318 321 325 313 309 307
337 335 335 334 334 333 304 306 314 335 335 333 332 331 328 328 324 328 314 313 314 314 320 329 326 322 315 317 317 316 317 318 313 313 313 307 315 316 317 315 307 306 305
336 337 335 333 334 325 303 302 309 334 335 333 331 332 331 328 330 326 329 328 326 329 330 329 329 325 319 320 320 319 322 318 317 315 315 306 311 317 321 319 305 305 304
336 335 333 330 332 331 303 302 313 332 333 331 331 331 331 329 309 306 326 327 325 325 310 304 306 305 301 304 312 316 313 314 311 310 314 310 311 319 321 321 315 303 302
335 332 330 330 320 331 303 301 316 333 330 328 329 329 308 322 303 302 324 325 324 325 326 321 315 311 314 312 309 319 317 313 312 311 315 314 314 319 317 320 320 315 311
Wind_Speed
11 12 11 11 10 10 10 9 9 7 8 8 8 9 9 8 7 6 4 12 8 9 9 8 7 6 8 7 4 3 3 7 13 16 16 22 17 21 21 21 19 16 14
10 12 11 12 10 10 9 9 8 8 8 6 9 10 10 9 8 8 6 7 10 9 9 9 8 9 8 7 6 5 5 9 15 19 21 19 17 20 20 21 19 18 13
13 13 12 12 11 9 9 7 8 9 7 6 8 10 10 10 7 6 7 7 8 11 10 9 10 8 9 8 7 7 7 11 16 17 18 18 17 17 19 18 18 16 15
15 13 11 11 11 9 9 9 8 6 8 7 7 10 7 7 7 10 8 7 8 5 12 13 9 9 10 10 9 9 9 10 13 15 17 15 15 16 17 15 14 13 13
15 12 11 10 10 10 9 8 8 7 6 8 6 6 8 7 9 8 11 10 7 6 6 14 10 8 10 11 10 9 9 10 11 12 12 15 16 14 13 13 11 11 12
14 12 10 9 9 9 9 9 7 7 6 5 5 6 7 8 8 8 10 8 9 10 8 5 9 9 10 12 10 10 9 10 12 13 14 14 13 12 14 12 12 13 18
13 12 9 10 11 9 10 8 8 7 4 3 4 6 8 11 8 8 6 8 10 11 9 7 6 4 9 10 7 8 9 9 11 14 15 12 13 15 15 14 19 21 21
13 12 10 11 11 9 10 10 7 4 5 4 3 4 7 2 6 7 7 7 8 7 9 11 9 5 5 9 10 9 8 8 10 11 13 13 15 15 15 20 22 23 23
13 12 12 10 10 9 9 8 8 8 5 4 8 7 3 2 4 4 7 6 6 6 7 6 8 8 7 5 7 9 7 6 10 11 12 15 17 17 18 22 23 23 23
12 12 12 10 10 9 8 8 7 7 5 6 5 6 7 6 2 2 3 6 6 5 7 6 7 8 10 6 3 6 12 9 9 10 13 17 19 20 22 23 23 22 21
11 12 11 10 10 8 8 8 7 7 6 5 7 3 5 6 5 4 2 3 6 7 6 6 5 6 9 9 8 9 10 10 9 12 13 17 20 22 25 25 24 22 21
9 10 10 9 9 7 8 7 7 7 7 6 5 4 5 5 6 5 3 3 3 4 5 4 5 5 6 7 5 13 11 10 9 13 14 18 21 23 26 26 24 23 21
8 10 10 9 8 9 7 7 6 7 6 7 6 5 5 3 3 3 3 3 2 4 3 4 4 5 5 6 6 7 11 10 11 13 14 16 19 23 23 25 22 20 19
8 11 9 9 9 8 7 6 6 5 6 8 7 6 3 2 2 2 2 2 4 2 5 4 3 5 5 4 5 6 10 10 11 12 14 17 20 20 21 21 19 18 16
8 10 9 8 8 7 7 6 5 6 6 5 5 6 3 2 0 3 2 2 1 3 5 5 4 4 4 5 7 9 10 13 14 14 17 18 18 19 18 16 13 12 12
8 9 8 7 7 7 7 7 5 7 6 6 5 7 6 4 3 4 5 2 5 4 3 4 3 4 4 4 8 8 8 14 16 17 19 20 18 15 15 15 13 14 14
8 8 7 7 8 8 7 7 5 6 8 7 5 9 8 8 5 3 5 7 3 4 4 4 4 3 5 6 7 8 9 10 11 18 20 19 17 16 15 16 15 15 12
7 7 7 8 8 8 7 8 8 6 5 7 6 7 7 5 5 7 5 7 6 5 4 8 8 4 4 4 8 9 7 8 10 17 21 20 18 17 16 15 17 13 9
8 8 8 8 8 8 8 7 6 6 6 5 4 4 7 8 7 7 8 7 5 5 5 7 7 2 3 2 6 6 7 7 7 18 20 20 18 16 16 17 12 10 9
9 8 8 8 8 9 8 6 6 5 5 4 4 2 3 7 9 9 7 7 6 7 6 7 6 4 2 3 5 8 7 6 8 8 12 14 16 15 14 12 11 10 8
9 9 9 9 7 6 5 4 5 6 5 5 5 4 5 6 7 2 5 8 10 9 7 6 5 3 3 3 7 5 9 9 8 8 11 9 9 8 6 8 8 9 10
10 10 10 8 8 4 7 4 3 5 5 5 6 5 6 5 6 6 8 9 7 11 10 6 4 4 5 6 7 9 12 11 6 4 9 7 7 6 5 8 8 11 8
9 8 8 8 7 6 4 2 2 4 5 5 5 6 4 4 3 5 6 7 10 7 8 10 11 10 7 8 9 11 13 12 8 5 9 5 2 5 4 5 5 6 7
9 8 8 8 8 6 4 1 4 5 5 6 5 4 6 5 7 6 7 8 8 8 9 6 8 10 8 8 10 10 12 14 11 7 4 4 1 6 7 6 4 5 5
9 8 8 8 7 8 5 2 6 7 6 6 5 4 3 7 8 7 4 10 9 6 8 13 13 18 12 12 12 12 10 14 8 4 1 4 3 7 7 7 6 6 6
9 8 9 7 6 9 7 1 4 2 5 4 4 5 4 3 9 7 5 5 10 10 11 12 14 15 13 11 6 6 11 11 9 6 4 5 8 7 6 6 8 7 7
Wind_Direction
210 210 218 222 206 216 210 226 231 224 225 233 248 242 245 252 266 264 277 158 208 232 235 229 219 202 187 188 189 212 218 198 174 163 170 162 165 174 183 183 188 201 185
208 216 217 220 219 222 221 221 216 228 231 223 233 243 253 253 246 255 257 165 176 213 224 219 221 209 193 183 182 207 204 186 174 176 178 180 179 198 189 188 193 202 165
213 216 221 221 219 219 229 220 227 227 242 250 246 236 241 242 251 248 252 265 177 187 215 219 228 224 213 202 191 197 201 188 179 175 177 188 196 199 198 195 193 179 168
217 206 227 218 220 217 209 219 223 235 238 242 241 246 237 263 255 258 251 236 220 245 193 203 215 226 221 211 207 197 202 197 187 190 188 196 198 195 193 192 182 174 158
202 217 219 214 211 216 213 222 235 228 237 240 278 268 259 262 255 245 234 232 233 216 234 173 195 209 219 208 206 204 205 190 183 175 181 188 181 183 183 176 173 171 167
196 201 211 207 199 210 208 222 208 219 250 271 288 284 266 257 246 239 241 236 223 215 207 228 186 185 179 186 195 211 212 194 189 186 189 185 180 186 171 169 165 154 143
191 192 201 184 200 201 216 195 210 214 234 259 268 261 246 226 235 244 232 238 230 218 201 211 226 141 164 175 190 213 216 201 187 188 191 191 176 164 161 162 143 139 139
183 185 190 179 191 192 198 201 194 209 219 205 249 277 264 169 227 217 216 225 221 217 218 206 208 169 186 188 182 192 218 213 187 190 178 166 161 156 153 144 144 140 139
177 184 185 178 174 206 184 191 203 216 235 205 243 268 282 288 204 181 209 216 202 212 208 240 189 176 192 196 157 171 189 195 183 181 173 170 153 149 149 152 147 151 148
171 178 173 168 182 203 164 189 207 216 202 217 204 239 276 320 293 202 214 195 214 214 206 211 189 203 170 201 141 78 156 170 180 182 161 159 152 151 158 153 151 147 152
166 172 173 178 185 213 179 205 199 213 208 247 233 180 224 245 251 280 189 189 202 191 184 198 193 206 190 178 187 147 160 172 171 154 163 153 154 154 153 152 150 153 154
162 165 172 179 185 197 194 199 199 200 233 234 245 214 205 214 227 228 233 157 187 183 176 177 177 190 189 192 178 131 161 169 153 152 154 151 158 154 155 156 156 156 161
161 163 174 179 183 198 192 195 197 204 205 230 217 233 237 249 229 211 246 218 149 172 155 135 172 183 171 183 153 171 162 152 153 164 161 151 153 156 154 148 156 162 167
169 155 182 179 189 188 188 188 199 214 208 212 211 231 282 208 324 34 270 287 168 154 141 135 169 177 157 169 135 171 151 143 152 142 132 140 149 150 151 152 158 171 164
137 165 172 179 184 188 193 184 221 205 215 203 202 206 183 167 210 249 272 274 252 175 153 171 152 181 169 162 148 179 156 147 151 138 140 137 141 146 154 150 155 148 132
151 162 173 184 184 187 191 189 189 193 200 201 189 182 195 191 165 226 211 203 251 248 160 137 123 153 166 194 156 174 159 148 151 143 149 146 145 145 137 130 133 134 133
160 171 177 178 179 181 190 194 213 175 208 192 182 197 190 186 185 184 203 233 245 227 173 118 109 130 158 185 168 149 150 142 165 144 139 135 130 127 124 117 116 113 127
169 164 170 174 180 183 175 195 199 181 201 208 194 196 173 188 187 189 238 214 223 205 173 149 136 93 72 44 132 118 118 145 148 145 137 130 127 124 120 123 119 150 146
156 162 169 175 179 176 180 196 200 191 214 209 190 187 182 198 187 186 215 210 194 163 152 159 118 102 73 68 95 97 103 106 123 136 128 126 126 121 126 123 144 143 150
157 168 172 166 167 175 177 186 192 203 187 170 135 218 220 211 185 220 197 182 146 142 116 117 134 117 94 97 106 117 97 96 112 112 120 121 121 116 120 125 126 157 154
160 162 159 160 159 181 175 184 188 167 156 157 128 92 55 32 31 257 198 160 159 149 138 128 131 122 126 131 135 123 110 105 90 117 107 114 122 123 127 132 147 141 142
166 167 171 160 169 121 68 49 320 148 166 131 146 130 97 101 75 19 2 46 178 145 153 143 134 144 144 126 132 133 128 126 104 66 111 94 112 112 149 171 104 144 154
165 168 153 148 128 108 78 112 322 150 148 144 155 147 140 110 117 110 92 88 65 111 143 167 167 156 148 145 135 134 137 132 115 104 115 81 106 118 124 120 105 127 149
167 151 143 129 137 121 105 149 264 152 130 130 150 171 163 173 119 141 145 136 123 142 151 176 142 136 131 134 129 129 128 105 103 99 91 94 262 163 164 139 119 147 166
156 149 132 137 146 137 129 250 285 141 136 135 137 135 192 168 146 165 185 139 123 110 68 57 95 104 101 99 120 119 127 130 128 122 105 102 191 176 185 174 158 167 194
153 138 138 149 152 142 132 206 290 90 121 121 125 111 49 133 170 183 162 137 144 143 134 106 107 105 116 110 71 131 146 139 133 115 180 133 177 187 187 187 194 179 202